Content
SEND FEEDBACK

Daily
Averages
Monthly
Summary
United States of America

RAPID CITY, SOUTH DAKOTA


Home > North America > United States > South Dakota
Elevation: 3162 feet     Latitude: 44 03N     Longitude: 103 04W

WEATHER
 
SELECT A DAY
Number of Records: 202,792;   Date Range: 1/1/95 - 9/30/14
 
SHARE

PRINT THIS DATA

[ ← Previous Day ]
WEATHER ALMANAC - MARCH 1, 2013
[ Next Day → ]
[ °C ]   °F
Weather ElementAverageHighLow
Temperature33.6 °F46 °F (1:52 pm)17.1 °F (4:52 am)
Dewpoint16.4 °F23 °F (8:52 am)10.9 °F (3:52 pm)
Humidity54.3 %93 % (3:52 am)25 % (1:52 pm)
Barometer30.28 in30.35 in (7:52 am)30.19 in (4:52 pm)
Wind Speed6.4 mph16.1 mph (8:52 am)
Wind Gust23 mph (10:52 am)
Weather ElementAverage
Visibility10 mi
Wind DirectionS (176.1 °)

Weather ElementTotal
Precipitation---
Heating Degree Days33.5 (Base 65)
Averaged from 23 records on March 1, 2013
WEATHER CONDITIONS BREAKOUT
WIND DIRECTION BREAKOUT
WEATHER BY HOUR - MARCH 1, 2013
[ °C ]   °F
Local TimeTemperatureDewpointHumidityBarometerVisibilityWind DirectionWind SpeedGust SpeedPrecipitationEventsConditions
1:52 AM21.0 °F17.1 °F85 %30.30 in10.0 miNW (320°)8.1 mphClear
2:52 AM21.9 °F18.0 °F85 %30.30 in10.0 miNW (320°)5.8 mphClear
3:52 AM17.6 °F15.8 °F93 %30.21 in10.0 miNNW (340°)4.6 mphClear
4:52 AM17.1 °F14.0 °F88 %30.33 in10.0 miCalmClear
5:52 AM19.0 °F15.1 °F85 %30.34 in10.0 miNW (320°)9.2 mphClear
6:52 AM27.0 °F19.9 °F75 %30.34 in10.0 miNNW (330°)12.7 mphClear
7:52 AM30.9 °F21.9 °F69 %30.35 in10.0 miNNW (340°)12.7 mphClear
8:52 AM35.1 °F23.0 °F61 %30.35 in10.0 miNorth (360°)16.1 mphClear
9:52 AM39.2 °F21.2 °F49 %30.27 in10.0 miNNW (340°)15.0 mphClear
10:52 AM42.1 °F18.0 °F38 %30.33 in10.0 miNorth (360°)11.5 mph23.0 mphClear
11:52 AM42.1 °F17.1 °F37 %30.33 in10.0 miNNE (30°)11.5 mph18.4 mphPartly Cloudy
12:52 PM44.1 °F15.1 °F31 %30.30 in10.0 miNorth (10°)9.2 mph19.6 mphOvercast
1:52 PM46.0 °F12.0 °F25 %30.29 in10.0 miVariable6.9 mphOvercast
2:52 PM45.0 °F12.0 °F26 %30.28 in10.0 miCalmOvercast
3:52 PM45.0 °F10.9 °F25 %30.30 in10.0 miNNW (340°)3.5 mphOvercast
4:52 PM44.6 °F12.2 °F27 %30.19 in10.0 miSouth (170°)4.6 mphOvercast
5:52 PM39.9 °F16.0 °F38 %30.30 in10.0 miSE (140°)5.8 mphOvercast
6:52 PM36.0 °F15.1 °F43 %30.29 in10.0 miSE (140°)5.8 mphPartly Cloudy
7:52 PM32.0 °F15.8 °F51 %30.19 in10.0 miCalmClear
8:52 PM32.0 °F17.1 °F54 %30.28 in10.0 miCalmOvercast
9:52 PM30.0 °F15.1 °F54 %30.26 in10.0 miCalmPartly Cloudy
10:52 PM34.0 °F18.0 °F52 %30.22 in10.0 miSouth (190°)4.6 mphOvercast
11:52 PM30.9 °F17.1 °F57 %30.20 in10.0 miCalmMostly Cloudy
Hourly data recorded from KRAP, located miles away from Rapid City, South Dakota







STORIES FROM OUR PARTNERS